Simultaneous Nadir Overpasses (SNOs) Predictions

Prediction of SNOs between AURA and NPP Satellite Orbit:

Table of predicted SNOs for the next 14.0 days since TLE Epoch: 3/5/2022
Index Date (AURA) Time (AURA) Lat,Lon (AURA) SZA (AURA ) Date (NPP) Time (NPP) Lat,Lon (NPP) SZA (NPP ) Distance(km) Time Diff (sec)
1 03/06/2022 11:25:34 -79.48, 85.44 81.62 03/06/2022 11:24:53 -79.48, 85.38 81.58 1.24 41
2 03/06/2022 12:14:52 79.78,-104.76 97.93 03/06/2022 12:15:28 79.78,-104.68 97.88 1.67 36
3 03/09/2022 03:42:02 -79.62,-157.73 82.88 03/09/2022 03:41:43 -79.63,-157.62 82.89 2.37 19
4 03/09/2022 04:31:23 79.80, 11.26 96.84 03/09/2022 04:32:22 79.80, 11.22 96.80 0.93 59
5 03/11/2022 19:09:13 79.39, 148.92 96.41 03/11/2022 19:08:00 79.39, 148.90 96.47 0.52 73
6 03/11/2022 19:58:33 -79.67, -41.52 84.01 03/11/2022 19:58:37 -79.67, -41.46 84.03 1.40 4
7 03/14/2022 11:25:42 79.50, -94.46 95.18 03/14/2022 11:24:52 79.50, -94.44 95.21 0.39 50
8 03/14/2022 12:15:02 -79.77, 75.15 85.25 03/14/2022 12:15:29 -79.78, 75.25 85.29 2.20 27
9 03/17/2022 03:42:10 79.63, 22.34 93.91 03/17/2022 03:41:43 79.64, 22.49 93.90 3.08 27



Historial Predications of SNOs between AURA and NPP
